STARLINK-37596, 69032

Orbit data source: Space-Track

STARLINK-37596, 69032 is a payload satellite owned by SpaceX/Seattle (US) in SSO that was launched on Wed, 06 May 2026 UTC via an FALCON 9 launch vehicle from the Air Force Western Test Range (AFWTR). Payload-class satellites include a variety of spacecraft equipped with specific instruments for various scientific and technological missions. These include communications satellites like Starlink; space stations such as the ISS; scientific satellites like the Hubble; Earth observation satellites from companies like Planet Labs, Umbra, and HawkEye 360; GPS; miniature CubeSats for education and research; and military/defense satellites.

Loading next visibility...
Identifier
69032, 2026-101H
Orbit
SSO
Country
Flag of USUS
Related business
Manufacturer
SpaceX/Seattle
Mission
Operational spacecraft
Bus & Motor
STARLINK V2MO, Unknown motor
Mass
575 kg wet, ~530 kg dry
Launch date (UTC)
2026-05-06 (1 month ago)
Launch vehicle
FALCON 9
Launch site
Air Force Western Test Range (AFWTR)
Object type
Payload
Rocket body
Debris
Shape & HBR
Unknown shape, 14.5 m
Radar Cross Section
Large (>1 m²)

Expand to show TLE details & history
Last TLE update: 6 hours ago

TLE from 6 hours ago
0 STARLINK-37596
1 69032U 26101H   26168.83335647  .00011356  00000-0  35386-3 0  9996
2 69032  97.2839  23.7466 0001478  75.4125  33.9335 15.33415204  5933
Epoch: 2026-06-17T20:00Z
TLE epoch observation values (Epoch: 2026-06-17T20:00:01.999Z)
Latitude
69.45034°
Longitude
17.47355°
Altitude
476.823 km
Speed
7.634 km/s
True Right ascension
14h 54m 16s
True Declination
69° 19' 57"
Sunlit
Object was in daylight at epoch
Visualization orbit readout
Latitude
Unknown
Longitude
Unknown
Altitude
Unknown
Speed
Unknown
Apparent Right ascension
Unknown
Apparent Declination
Unknown
Sunlit
N/A
Visualization observer readout
Local Sidereal Time
13:02:52
Azimuth
Unknown
Elevation
Unknown
Doppler factor
Unknown
Orbital elements
Apogee altitude
463.586 km
Perigee altitude
461.564 km
Semi-major axis
6,840.712 km
Eccentricity
0.00015
Inclination
97.2839°
RAAN
23.7466°
Arg. of periapsis
75.4125°
True anomaly
33.94296°
Mean anomaly
33.9335°
Eccentric anomaly
33.93823°
Mean motion
3.83611 °/min
Orbital period
93.85 mins
BSTAR
0.00035386
Loading maneuver chart data...
Computing Atmospheric mass density...
Loading historical data...
Loading historical data...
Loading historical data...
Loading historical data...
Loading historical data...
Loading historical data...
Loading historical data...

Documentation

Showing up to 5 results
|